User: anonymous   Login
Location: Newark
(45.8944°N, 12.5886°E)
Time: 19:22:54
(UTC+00:00)
Language:

XW-2C - Orbit

View from above orbital plane
View from above orbital plane
View from above satellite
View from above satellite

Ground track
Ground track

The orbit data is extracted from the following two-line orbital elements,

1 40906U 15049H   20101.53219889  .00000775  00000-0  43760-4 0  9990
2 40906  97.4768 103.8868 0013053 247.8703 229.5477 15.16000189251969
Epoch (UTC): 10 April 2020 12:46:21
Eccentricity: 0.0013053
inclination: 97.4768°
perigee height: 509 km
apogee height: 527 km
right ascension of ascending node: 103.8868°
argument of perigee: 247.8703°
revolutions per day: 15.16000189
mean anomaly at epoch: 229.5477°
orbit number at epoch: 25196

The dashed part of the orbit path shows where the satellite is in the earth's shadow,  

DLR